Location: ???????????
(55.5758°N, 38.4970°E)
Time: 16:55:27
(UTC+00:00)

USA 59 Rocket - Pass Details

Date: 15 November 2025
Orbit: 370 x 1678 km, 63.3° (Epoch: 14 December)

Event Time Altitude Azimuth Distance (km) Brightness Sun altitude
Exits shadow 04:15:35 - 308° (NW) 1,520 1.4 -6.4°
Reaches altitude 10° 04:15:59 10° 313° (NW) 1,384 1.3 -6.4°
Maximum altitude 04:18:15 20° 3° (N) 982 0.9 -6.1°
Drops below altitude 10° 04:20:40 10° 53° (NE) 1,489 2.4 -5.8°
Sets 04:23:17 0° 71° (ENE) 2,484 4.0 -5.5°
